Flag for Germany Weather past 2 weeks in Schönebeck, Saxony-Anhalt, Germany

Now
64 °F

Scattered clouds.


Feels Like: 64 °F
Forecast: 66 / 91 °F
Wind: 1 mph from East

Location: Magdeburg

Current Time: Aug 30, 2015 at 8:41:13 AM

Latest Report: Aug 30, 2015 at 8:00 AM


Visibility: 9 mi

Pressure: 30.12 "Hg

Humidity: 84%

Dew point: 58 °F

Location of SchönebeckLocation

Historic Weather in Schönebeck — Graph

°F

Schönebeck temperature yesterday

Maximum temperature yesterday: 74 °F (at 5:00 PM)
Minimum temperature yesterday: 54 °F (at 7:00 AM)
Average temperature yesterday: 65 °F

Past Weeks' High & Low Weather Summary

 TemperatureHumidityPressure
High80 °F (Aug 24, 6:00 PM)100% (Aug 16, 4:00 AM)30.30 "Hg (Aug 16, 4:00 AM)
Low51 °F (Aug 23, 7:00 AM)30% (Aug 22, 4:00 PM)29.66 "Hg (Aug 24, 7:00 PM)
Average66 °F77%29.99 "Hg
* Reported Aug 15 7:00 AM — Aug 30 7:00 AM, Schönebeck, Weather by CustomWeather, © 2015

Note: Actual official high and low records may vary slightly from our data, if they occured in-between our weather recording intervals... More about our weather records

Advertising

Schönebeck weather history for previous 24 hours

 ConditionsComfort  
Time TempWeatherWind HumidityBarometerVisibility
7:00 AM
Sun, Aug 30
60 °FScattered clouds.1 mph94%30.11 "Hg7 mi
6:00 AM60 °FPassing clouds.2 mph92%30.11 "Hg7 mi
4:00 AM60 °FFog.1 mph94%30.13 "Hg4 mi
3:00 AM61 °FLight fog.1 mph92%30.14 "Hg6 mi
2:00 AM61 °FPassing clouds.1 mph91%30.15 "Hg8 mi
1:00 AM63 °FPassing clouds.1 mph84%30.16 "Hg10 mi
12:00 AM63 °FPassing clouds.2 mph81%30.17 "Hg10 mi
10:00 PM
Sat, Aug 29
67 °FOvercast.2 mph74%30.18 "Hg15 mi
9:00 PM68 °FOvercast.1 mph71%30.17 "Hg22 mi
8:00 PM71 °FOvercast.2 mph62%30.16 "Hg28 mi
7:00 PM74 °FOvercast.2 mph58%30.17 "Hg34 mi
6:00 PM74 °FOvercast.2 mph56%30.18 "Hg34 mi
5:00 PM74 °FPartly sunny.2 mph54%30.19 "Hg31 mi
4:00 PM73 °FPartly sunny.3 mph55%30.21 "Hg31 mi
3:00 PM73 °FPartly sunny.2 mph56%30.22 "Hg31 mi
2:00 PM71 °FPartly sunny.2 mph57%30.24 "Hg31 mi
1:00 PM72 °FPartly sunny.1 mph57%30.26 "Hg25 mi
12:00 PM70 °FScattered clouds.2 mph60%30.26 "Hg22 mi
10:00 AM65 °FSunny.1 mph74%30.27 "Hg12 mi
9:00 AM62 °FSunny.1 mph83%30.26 "Hg9 mi
8:00 AM56 °FSunny.1 mph93%30.24 "Hg7 mi
Weather by CustomWeather, © 2015

See weather overviewHow to use our weather pages